Location: *
(46.3500°N, 10.9000°E)
Time: 21:29:31
(UTC+00:00)

A-11 Canister half - Pass Details

Date: 25 April 2021
Orbit: 1526 x 1682 km, 47.3° (Epoch: 13 May)

Event Time Altitude Azimuth Distance (km) Brightness Sun altitude
Rises 11:29:26 0° 197° (SSW) 4,792 12.1 56.9°
Reaches altitude 10° 11:33:02 10° 187° (S) 3,834 11.8 56.8°
Maximum altitude 11:41:00 29° 132° (SE) 2,670 11.0 56.5°
Drops below altitude 10° 11:49:08 10° 77° (ENE) 3,932 11.1 56.2°
Sets 11:52:51 0° 68° (ENE) 4,933 11.4 56.0°
